Location: Bacharowice
(49.9333°N, 19.5833°E)
Time: 16:43:31
(UTC+00:00)

ISS - Visible Passes

Search period start: 24 July 2021 00:00
Search period end: 03 August 2021 00:00
Orbit: 419 x 421 km, 51.6° (Epoch: 24 July)

Date Brightness Start Highest point End Pass type
(mag) Time Alt. Az. Time Alt. Az. Time Alt. Az.
24 Jul -3.8 20:20:20 10° WNW 20:23:44 87° SSW 20:25:51 21° ESE visible
24 Jul -1.7 21:57:28 10° W 21:58:47 18° WSW 21:58:47 18° WSW visible
25 Jul -3.6 19:33:00 10° WNW 19:36:24 78° NNE 19:39:47 10° E visible
25 Jul -2.9 21:09:57 10° W 21:12:58 34° SW 21:12:58 34° SW visible
26 Jul -3.4 20:22:34 10° WNW 20:25:50 48° SSW 20:27:09 29° SSE visible
27 Jul -3.7 19:35:11 10° WNW 19:38:33 66° SSW 19:41:23 14° ESE visible
27 Jul -1.6 21:12:43 10° W 21:14:20 16° SW 21:14:20 16° SW visible
28 Jul -2.2 20:24:58 10° W 20:27:44 23° SW 20:28:35 21° SSW visible
29 Jul -2.7 19:37:26 10° W 19:40:32 33° SSW 19:42:53 15° SSE visible
30 Jul -1.2 20:28:40 10° WSW 20:29:26 11° SW 20:30:11 10° SSW visible
31 Jul -1.5 19:40:08 10° W 19:42:18 16° SW 19:44:28 10° S visible
